Location: Niagara
(43.2500°N, 79.0670°W)
Time: 12:49:12
(UTC-04:00)

ISS - Pass Details

Date: 10 October 2017
Orbit: 401 x 408 km, 51.6° (Epoch: 19 October)

Event Time Altitude Azimuth Distance (km) Brightness Sun altitude
Rises 19:40:52 0° 305° (NW) 2,326 1.1 -11.7°
Reaches altitude 10° 19:43:05 10° 315° (NW) 1,466 -0.3 -12.1°
Maximum altitude 19:46:05 32° 21° (NNE) 720 -2.8 -12.6°
Enters shadow 19:47:34 22° 69° (ENE) 958 -2.5 -12.9°
